SCP
0 0 0 0 0 0 0 0 0 0 0 0 0 0 0 0 0 0 0 0 0 0 0 0 0 0 0 0 0 0 0 0 0 0 0 0 0 0 0 0 0 0 0 0
0 0 0 -0 0 0 0 0 0 0 0 0 0 0 0 0 0 0 0 0 0 0 0 0 0 0 0 0 0 0 0 0 0 0 0 0 0 0 0 0 0 0 0 0
0 0 0 0 0 0 0 0 0 0 0 0 0 0 0 0 0 0 0 0 0 0 0 0 0 0 0 0 0 0 0 0 0 0 0 0 0 0 0 0 0 0 0 0
0 0 0 0 0 0 0 0 0 0 0 0 0 0 0 0 0 0 0 0 0 0 0 0 0 0 0 0 0 0 0 0 0 0 0 0 0 0 0 0 0 0 0 0
0 0 0 0 0 0 0 0 0 0 0 0 0 0 0 0 0 0 0 0 0 0 0 0 0 0 0 0 0 0 0 0 0 0 0 0 0 0 0 0 0 0 0 0
0 0 0 0 0 0 0 0 0 0 0 0 0 0 0 0 0 0 0 0 0 0 0 0 0 0 0 0 0 0 0 0 0 0 0 0 0 0 0 0 0 0 0 0
0 0 0 0 0 0 0 0 0 0 0 0 0 0 0 0 0 0 0 0 0 0 0 0 0 0 0 0 0 0 0 0 0 0 0 0 0 0 0 0 0 0 0 0
0 0 0 0 0 0 0 0 0 0 0 0 0 0 0 0 0 0 0 0 0 0 0 0 0 0 0 0 0 0 0 0 0 0 0 0 0 0 0 0 0 0 0 0
0 0 0 0 0 0 0 0 0 0 0 0 0 0 0 0 0 0 0 0 0 0 0 0 0 0 0 0 0 0 0 0 0 0 0 0 0 0 0 0 0 0 0 0
0 0 0 0 0 0 0 0 0 0 0 0 0 0 0 0 0 0 0 0 0 0 0 0 0 0 0 0 0 0 0 0 0 0 0 0 0 0 0 0 0 0 0 0
0 0 0 0 0 0 0 0 0 0 0 0 0 0 0 0 0 0 0 0 0 0 0 0 0 0 0 0 0 0 0 0 0 0 0 0 0 0 0 0 0 0 0 0
0 0 0 0 0 0 0 0 0 0 0 0 0 0 0 0 0 0 0 0 0 0 0 0 0 0 0 0 0 0 0 0 0 0 0 0 0 0 0 0 0 0 0 0
0 0 0 0 0 0 0 0 0 0 0 0 0 0 0 0 0 0 0 0 0 0 0 0 0 0 0 0 0 0 0 0 0 0 0 0 0 0 0 0 0 0 0 0
0 0 0 0 0 0 0 0 0 0 0 0 0 0 0 0 0 0 0 0 0 0 0 0 0 0 0 0 0 0 0 0 0 0 0 0 0 0 0 0 0 0 0 0
0 0 0 0 0 0 0 0 0 0 0 0 0 0 0 0 0 0 0 0 0 0 0 0 0 0 0 0 0 0 0 0 0 0 0 0 0 0 0 0 0 0 0 0
0 0 0 0 0 0 0 0 0 0 0 0 0 0 0 0 0 0 0 0 0 0 0 0 0 0 0 0 0 0 0 0 0 0 0 0 0 0 0 0 0 0 0 0
0 0 0 0 0 0 0 0 0 0 0 0 0 0 0 0 0 0 0 0 0 0 0 0 0 0 0 0 0 0 0 0 0 0 0 0 0 0 0 0 0 0 0 0
0 0 0 0 0 0 0 0 0 0 0 0 0 0 0 0 0 0 0 0 0 0 0 0 0 0 0 0 0 0 0 0 0 0 0 0 0 0 0 0 0 0 0 0
0 0 0 0 0 0 0 0 0 0 0 0 0 0 0 0 0 0 0 0 0 0 0 0 0 0 0 0 0 0 0 0 0 0 0 0 0 0 0 0 0 0 0 0
0 0 0 0 0 0 0 0 0 0 0 0 0 0 0 0 0 0 0 0 0 0 0 0 0 0 0 0 0 0 0 0 0 0 0 0 0 0 0 0 0 0 0 0
0 0 0 0 0 0 0 0 0 0 0 0 0 0 0 0 0 0 0 0 0 0 0 0 0 0 0 0 0 0 0 0 0 0 0 0 0 0 0 0 -0 -0 0 0
0 0 0 0 0 0 0 0 0 0 0 0 0 0 0 0 0 0 0 0 0 0 0 0 0 0 0 0 0 0 0 -0 -0 -0 0 0 0 0 0 -0 -0 0 -0 -0
0 0 0 0 0 0 0 0 0 0 0 0 0 0 0 0 0 0 0 0 0 0 0 0 0 0 0 0 0 0 0 -0 -0 -0 0 0 0 0 -0 -0 -0 -0 -0 -0
0 0 0 0 0 0 0 0 0 0 0 0 0 0 0 0 0 0 0 0 0 0 0 0 0 0 0 0 0 0 0 0 0 -0 -0 0 0 0 0 -0 0 0 0 0
0 0 0 0 0 0 0 0 0 0 0 0 0 0 0 0 0 0 0 0 0 0 0 0 0 0 0 0 0 0 -0 0 0 0 0 0 0 0 0 0 0 0 0 0
0 0 0 0 0 0 0 0 0 0 0 0 0 0 0 0 0 0 0 0 0 0 0 0 0 0 0 0 0 -0 -0 -0 0 0 0 0 0 0 0 0 0 0 0 0
Wind_Speed_500mb
9 10 6 14 11 8 4 3 4 7 9 12 8 12 23 32 32 17 24 23 33 45 52 53 57 61 56 47 36 17 5 12 13 14 9 34 29 27 32 37 49 52 48 51
12 9 10 7 8 8 7 6 9 8 10 11 5 14 11 30 24 19 7 42 50 50 48 48 49 58 50 40 25 3 3 10 10 24 21 36 33 34 37 47 50 50 52 53
8 7 5 9 8 13 4 6 4 7 8 10 6 9 12 10 35 37 24 26 37 49 51 50 56 54 43 29 14 13 10 19 30 19 30 34 34 43 43 47 48 48 49 54
3 10 6 11 7 7 3 4 4 6 7 4 5 8 11 13 19 27 29 25 29 35 43 49 52 46 41 22 9 45 35 35 20 22 34 34 40 46 49 51 49 48 52 60
8 12 10 12 6 0 5 6 5 4 4 6 14 7 11 7 9 10 15 24 29 31 40 48 48 36 28 12 22 19 23 33 31 27 38 42 46 52 53 53 55 56 59 60
5 8 7 3 2 6 5 2 10 8 5 5 7 7 9 5 1 4 8 18 29 35 35 33 30 25 14 15 19 26 29 30 28 33 42 45 52 56 56 54 56 61 67 62
10 6 9 7 9 9 18 13 8 9 9 9 7 4 12 8 8 8 18 25 28 32 34 24 11 3 7 6 10 13 15 20 27 39 44 45 45 46 50 57 63 65 57 44
3 10 8 12 4 8 5 12 9 9 7 10 6 7 8 5 20 29 30 25 25 25 20 22 28 26 21 17 9 11 16 26 39 46 47 48 51 53 55 55 48 39 30 28
4 7 10 6 7 3 3 3 2 10 5 4 6 4 4 10 13 23 24 26 29 37 39 34 27 21 19 18 23 30 35 39 43 45 45 44 44 43 37 31 28 25 24 27
4 3 5 11 9 10 7 3 6 7 3 8 8 8 9 9 11 12 22 36 42 40 35 28 19 15 25 33 38 42 44 40 34 31 30 29 28 24 23 22 24 24 25 26
5 5 11 6 8 4 11 9 9 6 6 6 5 10 5 12 12 17 27 41 37 30 21 13 12 20 26 34 40 41 38 31 26 23 21 18 19 22 24 26 26 27 25 28
3 7 3 9 7 5 5 5 8 8 9 2 5 12 10 13 29 40 40 39 25 16 11 18 16 19 32 39 43 41 34 25 20 15 16 19 20 23 24 24 23 24 26 25
6 4 6 17 12 9 8 3 6 6 5 8 5 11 8 21 26 22 33 25 14 4 11 13 23 31 38 38 34 28 23 15 14 18 21 20 20 22 27 27 23 26 25 24
6 5 12 10 14 6 9 11 6 7 5 6 11 7 3 12 12 20 16 13 2 7 13 22 31 37 39 35 29 23 11 15 18 20 18 21 23 27 33 27 22 23 24 25
7 3 5 9 10 5 7 9 11 4 7 7 12 2 6 8 13 16 13 6 6 13 18 26 38 42 38 31 16 14 17 20 19 17 18 22 24 27 29 25 26 28 27 23
6 3 3 6 4 10 2 13 7 9 6 7 10 9 2 15 15 15 19 26 13 7 15 31 41 42 31 16 15 22 23 21 18 14 19 26 27 32 32 29 29 31 28 23
4 10 5 8 6 7 7 7 8 7 12 4 8 5 2 5 6 7 11 12 4 13 28 39 40 27 14 17 20 22 23 20 17 15 21 25 28 34 36 31 29 29 29 26
12 10 5 5 8 2 1 11 16 14 7 7 8 7 4 8 12 16 9 5 13 23 36 37 19 13 14 18 20 19 19 18 20 22 23 25 27 32 35 35 34 37 34 31
7 8 6 5 3 4 6 4 4 1 6 5 2 11 13 12 11 11 10 10 20 32 34 21 14 17 19 21 23 26 26 28 31 32 32 29 28 29 32 36 39 39 32 31
9 10 8 3 4 5 4 6 14 9 8 13 7 13 18 5 4 7 10 15 26 28 20 6 14 18 19 24 29 28 32 37 38 40 38 31 26 27 30 35 38 38 38 34
7 7 6 6 5 7 6 11 9 6 9 5 4 5 7 3 9 11 8 18 20 14 10 12 17 21 27 31 29 28 32 38 40 38 35 24 20 25 30 33 38 38 33 27
5 4 2 1 3 6 3 4 4 5 6 5 3 9 11 9 7 7 13 13 11 12 15 19 23 25 26 28 33 36 34 34 38 32 32 26 25 24 24 31 37 35 27 23
2 8 6 10 7 4 5 3 11 6 7 4 10 12 11 10 10 13 13 10 12 15 18 22 25 27 22 31 32 37 37 37 33 31 27 25 22 25 34 33 30 34 31 31
1 5 4 6 1 3 10 17 12 9 8 7 10 12 11 10 12 13 17 17 16 17 20 24 29 28 29 33 26 32 38 34 29 23 26 22 27 29 31 32 31 28 32 41
5 7 7 4 2 8 12 11 11 7 9 10 13 11 11 12 17 21 20 17 17 20 26 29 28 27 31 27 27 34 37 32 26 22 25 27 31 27 29 29 27 25 30 35
9 11 9 9 17 8 12 21 11 5 7 10 13 9 13 14 22 19 17 17 22 28 31 26 27 29 31 30 31 34 33 32 27 23 28 25 24 26 24 24 26 31 37 38
Wind_Direction_500mb
4 54 288 275 188 172 194 144 290 283 348 79 4 41 15 20 52 78 190 190 189 198 203 205 203 178 174 170 175 160 284 221 229 261 288 275 274 279 293 311 320 321 322 322
23 5 285 245 136 103 93 74 333 299 8 90 337 38 341 35 23 356 202 183 200 199 200 200 183 175 172 173 162 313 111 194 283 285 293 261 277 297 308 312 320 318 314 312
113 277 7 80 66 77 41 122 276 239 3 38 3 348 357 10 28 34 46 195 186 182 180 173 169 168 165 163 202 94 8 312 273 279 266 281 293 300 301 312 311 305 307 313
271 352 34 51 87 128 12 261 322 304 52 274 19 267 335 354 8 26 56 105 142 160 169 168 169 169 171 155 355 323 263 285 261 254 264 279 290 292 301 306 304 305 309 311
288 0 42 55 350 327 236 47 52 9 91 56 345 80 263 1 9 1 19 115 141 166 176 170 171 177 175 221 293 311 253 269 251 260 272 282 288 293 296 299 299 299 301 309
43 336 56 295 10 26 18 52 45 54 92 43 288 114 284 302 195 167 78 116 132 146 155 153 164 181 223 260 289 253 248 255 263 273 281 289 294 289 290 290 295 301 308 313
347 355 322 28 28 9 41 44 338 348 2 230 310 55 243 294 13 152 138 127 124 128 130 127 107 273 267 254 229 235 253 268 282 288 293 288 286 289 297 303 307 310 312 323
75 328 18 340 131 235 284 147 163 248 219 263 330 249 255 57 97 120 122 114 113 119 121 110 109 108 99 86 52 11 332 305 291 289 288 289 293 298 305 311 315 319 327 328
54 306 318 47 316 45 335 254 177 110 29 39 260 294 353 89 83 107 103 116 109 113 112 106 93 71 43 11 355 334 320 311 302 297 297 301 306 312 319 321 325 334 330 331
164 344 339 305 16 34 65 164 360 10 252 270 291 279 232 182 163 119 108 117 124 119 114 106 85 34 354 333 336 331 324 316 310 311 314 325 333 341 343 340 331 329 331 331
89 98 293 5 35 339 358 11 29 115 122 199 290 265 216 225 169 141 126 134 128 123 113 94 25 330 321 329 332 332 336 333 333 337 341 355 354 345 339 333 331 331 333 326
357 131 287 266 300 232 68 118 112 106 297 213 179 267 336 161 146 142 143 145 136 116 67 2 349 343 335 340 344 342 341 340 345 2 351 343 343 343 344 340 339 337 336 331
181 26 17 348 355 3 51 354 125 117 87 227 167 277 47 95 106 125 138 137 130 59 332 325 343 346 345 338 335 335 338 351 359 350 348 352 350 349 345 340 336 337 337 338
96 119 151 190 229 207 305 317 344 141 154 240 234 249 135 53 79 111 134 135 65 325 336 326 334 341 341 340 335 338 356 355 352 352 2 358 352 350 349 352 348 341 337 338
97 188 191 259 262 271 259 338 330 102 285 188 322 70 105 131 130 147 171 183 209 294 294 325 338 339 335 334 346 3 350 343 347 353 354 357 355 348 351 353 353 351 347 346
10 231 165 278 15 14 38 7 71 38 5 66 33 44 97 118 135 153 184 222 244 277 318 334 335 331 336 358 359 353 349 344 343 350 0 360 359 357 356 351 351 351 350 347
159 140 107 262 350 337 13 16 72 77 31 30 49 328 338 132 157 244 276 254 291 342 341 335 333 339 10 1 356 354 356 357 357 353 351 350 347 357 3 359 351 346 348 344
152 118 106 236 9 334 251 29 94 98 60 74 77 63 274 263 297 288 274 314 347 339 333 336 351 5 357 358 357 353 350 348 344 337 333 342 348 346 353 346 342 345 340 335
111 110 80 125 138 345 260 25 321 205 251 216 300 326 305 308 323 293 305 336 339 334 334 343 356 358 359 355 349 345 341 335 332 329 333 337 330 336 335 340 343 345 341 335
60 82 110 85 85 262 282 294 347 203 301 207 324 324 332 304 322 283 325 323 331 335 335 18 359 356 352 346 342 342 344 339 333 326 319 322 324 324 332 344 346 345 340 336
11 7 66 106 227 249 242 231 326 108 250 214 291 334 348 281 270 316 311 330 341 7 44 7 357 353 346 342 354 344 343 348 348 352 359 333 315 327 341 347 345 344 346 351
114 40 217 93 235 305 360 290 235 195 130 131 34 356 345 334 328 328 328 352 24 41 20 8 356 351 343 339 343 346 345 349 345 349 349 347 332 331 344 343 343 348 349 354
61 186 198 174 223 271 303 278 118 91 99 26 357 345 338 350 355 343 346 34 61 36 13 2 2 356 2 356 351 359 352 346 341 343 347 346 354 349 349 347 348 358 4 4
86 146 136 65 199 153 127 136 118 93 66 41 11 359 360 21 47 55 73 77 52 16 11 356 345 344 348 346 356 356 348 344 348 348 355 358 347 344 346 353 360 9 19 42
195 144 141 279 226 173 196 167 139 99 55 34 16 26 67 60 91 90 83 56 33 12 358 359 4 359 0 2 348 352 352 357 352 350 355 350 347 355 3 6 13 36 43 32
186 179 166 224 215 171 183 173 155 79 46 24 14 78 91 92 104 90 60 43 18 14 359 4 4 6 2 353 348 349 350 350 347 341 342 353 5 3 18 43 45 65 65 47
Wind_Speed_850mb
9 10 6 14 11 8 4 3 4 7 9 12 8 12 23 32 32 17 24 23 33 45 52 53 57 61 56 47 36 17 5 12 13 14 9 34 29 27 32 37 49 52 48 51
12 9 10 7 8 8 7 6 9 8 10 11 5 14 11 30 24 19 7 42 50 50 48 48 49 58 50 40 25 3 3 10 10 24 21 36 33 34 37 47 50 50 52 53
8 7 5 9 8 13 4 6 4 7 8 10 6 9 12 10 35 37 24 26 37 49 51 50 56 54 43 29 14 13 10 19 30 19 30 34 34 43 43 47 48 48 49 54
3 10 6 11 7 7 3 4 4 6 7 4 5 8 11 13 19 27 29 25 29 35 43 49 52 46 41 22 9 45 35 35 20 22 34 34 40 46 49 51 49 48 52 60
8 12 10 12 6 0 5 6 5 4 4 6 14 7 11 7 9 10 15 24 29 31 40 48 48 36 28 12 22 19 23 33 31 27 38 42 46 52 53 53 55 56 59 60
5 8 7 3 2 6 5 2 10 8 5 5 7 7 9 5 1 4 8 18 29 35 35 33 30 25 14 15 19 26 29 30 28 33 42 45 52 56 56 54 56 61 67 62
10 6 9 7 9 9 18 13 8 9 9 9 7 4 12 8 8 8 18 25 28 32 34 24 11 3 7 6 10 13 15 20 27 39 44 45 45 46 50 57 63 65 57 44
3 10 8 12 4 8 5 12 9 9 7 10 6 7 8 5 20 29 30 25 25 25 20 22 28 26 21 17 9 11 16 26 39 46 47 48 51 53 55 55 48 39 30 28
4 7 10 6 7 3 3 3 2 10 5 4 6 4 4 10 13 23 24 26 29 37 39 34 27 21 19 18 23 30 35 39 43 45 45 44 44 43 37 31 28 25 24 27
4 3 5 11 9 10 7 3 6 7 3 8 8 8 9 9 11 12 22 36 42 40 35 28 19 15 25 33 38 42 44 40 34 31 30 29 28 24 23 22 24 24 25 26
5 5 11 6 8 4 11 9 9 6 6 6 5 10 5 12 12 17 27 41 37 30 21 13 12 20 26 34 40 41 38 31 26 23 21 18 19 22 24 26 26 27 25 28
3 7 3 9 7 5 5 5 8 8 9 2 5 12 10 13 29 40 40 39 25 16 11 18 16 19 32 39 43 41 34 25 20 15 16 19 20 23 24 24 23 24 26 25
6 4 6 17 12 9 8 3 6 6 5 8 5 11 8 21 26 22 33 25 14 4 11 13 23 31 38 38 34 28 23 15 14 18 21 20 20 22 27 27 23 26 25 24
6 5 12 10 14 6 9 11 6 7 5 6 11 7 3 12 12 20 16 13 2 7 13 22 31 37 39 35 29 23 11 15 18 20 18 21 23 27 33 27 22 23 24 25
7 3 5 9 10 5 7 9 11 4 7 7 12 2 6 8 13 16 13 6 6 13 18 26 38 42 38 31 16 14 17 20 19 17 18 22 24 27 29 25 26 28 27 23
6 3 3 6 4 10 2 13 7 9 6 7 10 9 2 15 15 15 19 26 13 7 15 31 41 42 31 16 15 22 23 21 18 14 19 26 27 32 32 29 29 31 28 23
4 10 5 8 6 7 7 7 8 7 12 4 8 5 2 5 6 7 11 12 4 13 28 39 40 27 14 17 20 22 23 20 17 15 21 25 28 34 36 31 29 29 29 26
12 10 5 5 8 2 1 11 16 14 7 7 8 7 4 8 12 16 9 5 13 23 36 37 19 13 14 18 20 19 19 18 20 22 23 25 27 32 35 35 34 37 34 31
7 8 6 5 3 4 6 4 4 1 6 5 2 11 13 12 11 11 10 10 20 32 34 21 14 17 19 21 23 26 26 28 31 32 32 29 28 29 32 36 39 39 32 31
9 10 8 3 4 5 4 6 14 9 8 13 7 13 18 5 4 7 10 15 26 28 20 6 14 18 19 24 29 28 32 37 38 40 38 31 26 27 30 35 38 38 38 34
7 7 6 6 5 7 6 11 9 6 9 5 4 5 7 3 9 11 8 18 20 14 10 12 17 21 27 31 29 28 32 38 40 38 35 24 20 25 30 33 38 38 33 27
5 4 2 1 3 6 3 4 4 5 6 5 3 9 11 9 7 7 13 13 11 12 15 19 23 25 26 28 33 36 34 34 38 32 32 26 25 24 24 31 37 35 27 23
2 8 6 10 7 4 5 3 11 6 7 4 10 12 11 10 10 13 13 10 12 15 18 22 25 27 22 31 32 37 37 37 33 31 27 25 22 25 34 33 30 34 31 31
1 5 4 6 1 3 10 17 12 9 8 7 10 12 11 10 12 13 17 17 16 17 20 24 29 28 29 33 26 32 38 34 29 23 26 22 27 29 31 32 31 28 32 41
5 7 7 4 2 8 12 11 11 7 9 10 13 11 11 12 17 21 20 17 17 20 26 29 28 27 31 27 27 34 37 32 26 22 25 27 31 27 29 29 27 25 30 35
9 11 9 9 17 8 12 21 11 5 7 10 13 9 13 14 22 19 17 17 22 28 31 26 27 29 31 30 31 34 33 32 27 23 28 25 24 26 24 24 26 31 37 38
Wind_Direction_850mb
4 54 288 275 188 172 194 144 290 283 348 79 4 41 15 20 52 78 190 190 189 198 203 205 203 178 174 170 175 160 284 221 229 261 288 275 274 279 293 311 320 321 322 322
23 5 285 245 136 103 93 74 333 299 8 90 337 38 341 35 23 356 202 183 200 199 200 200 183 175 172 173 162 313 111 194 283 285 293 261 277 297 308 312 320 318 314 312
113 277 7 80 66 77 41 122 276 239 3 38 3 348 357 10 28 34 46 195 186 182 180 173 169 168 165 163 202 94 8 312 273 279 266 281 293 300 301 312 311 305 307 313
271 352 34 51 87 128 12 261 322 304 52 274 19 267 335 354 8 26 56 105 142 160 169 168 169 169 171 155 355 323 263 285 261 254 264 279 290 292 301 306 304 305 309 311
288 0 42 55 350 327 236 47 52 9 91 56 345 80 263 1 9 1 19 115 141 166 176 170 171 177 175 221 293 311 253 269 251 260 272 282 288 293 296 299 299 299 301 309
43 336 56 295 10 26 18 52 45 54 92 43 288 114 284 302 195 167 78 116 132 146 155 153 164 181 223 260 289 253 248 255 263 273 281 289 294 289 290 290 295 301 308 313
347 355 322 28 28 9 41 44 338 348 2 230 310 55 243 294 13 152 138 127 124 128 130 127 107 273 267 254 229 235 253 268 282 288 293 288 286 289 297 303 307 310 312 323
75 328 18 340 131 235 284 147 163 248 219 263 330 249 255 57 97 120 122 114 113 119 121 110 109 108 99 86 52 11 332 305 291 289 288 289 293 298 305 311 315 319 327 328
54 306 318 47 316 45 335 254 177 110 29 39 260 294 353 89 83 107 103 116 109 113 112 106 93 71 43 11 355 334 320 311 302 297 297 301 306 312 319 321 325 334 330 331
164 344 339 305 16 34 65 164 360 10 252 270 291 279 232 182 163 119 108 117 124 119 114 106 85 34 354 333 336 331 324 316 310 311 314 325 333 341 343 340 331 329 331 331
89 98 293 5 35 339 358 11 29 115 122 199 290 265 216 225 169 141 126 134 128 123 113 94 25 330 321 329 332 332 336 333 333 337 341 355 354 345 339 333 331 331 333 326
357 131 287 266 300 232 68 118 112 106 297 213 179 267 336 161 146 142 143 145 136 116 67 2 349 343 335 340 344 342 341 340 345 2 351 343 343 343 344 340 339 337 336 331
181 26 17 348 355 3 51 354 125 117 87 227 167 277 47 95 106 125 138 137 130 59 332 325 343 346 345 338 335 335 338 351 359 350 348 352 350 349 345 340 336 337 337 338
96 119 151 190 229 207 305 317 344 141 154 240 234 249 135 53 79 111 134 135 65 325 336 326 334 341 341 340 335 338 356 355 352 352 2 358 352 350 349 352 348 341 337 338
97 188 191 259 262 271 259 338 330 102 285 188 322 70 105 131 130 147 171 183 209 294 294 325 338 339 335 334 346 3 350 343 347 353 354 357 355 348 351 353 353 351 347 346
10 231 165 278 15 14 38 7 71 38 5 66 33 44 97 118 135 153 184 222 244 277 318 334 335 331 336 358 359 353 349 344 343 350 0 360 359 357 356 351 351 351 350 347
159 140 107 262 350 337 13 16 72 77 31 30 49 328 338 132 157 244 276 254 291 342 341 335 333 339 10 1 356 354 356 357 357 353 351 350 347 357 3 359 351 346 348 344
152 118 106 236 9 334 251 29 94 98 60 74 77 63 274 263 297 288 274 314 347 339 333 336 351 5 357 358 357 353 350 348 344 337 333 342 348 346 353 346 342 345 340 335
111 110 80 125 138 345 260 25 321 205 251 216 300 326 305 308 323 293 305 336 339 334 334 343 356 358 359 355 349 345 341 335 332 329 333 337 330 336 335 340 343 345 341 335
60 82 110 85 85 262 282 294 347 203 301 207 324 324 332 304 322 283 325 323 331 335 335 18 359 356 352 346 342 342 344 339 333 326 319 322 324 324 332 344 346 345 340 336
11 7 66 106 227 249 242 231 326 108 250 214 291 334 348 281 270 316 311 330 341 7 44 7 357 353 346 342 354 344 343 348 348 352 359 333 315 327 341 347 345 344 346 351
114 40 217 93 235 305 360 290 235 195 130 131 34 356 345 334 328 328 328 352 24 41 20 8 356 351 343 339 343 346 345 349 345 349 349 347 332 331 344 343 343 348 349 354
61 186 198 174 223 271 303 278 118 91 99 26 357 345 338 350 355 343 346 34 61 36 13 2 2 356 2 356 351 359 352 346 341 343 347 346 354 349 349 347 348 358 4 4
86 146 136 65 199 153 127 136 118 93 66 41 11 359 360 21 47 55 73 77 52 16 11 356 345 344 348 346 356 356 348 344 348 348 355 358 347 344 346 353 360 9 19 42
195 144 141 279 226 173 196 167 139 99 55 34 16 26 67 60 91 90 83 56 33 12 358 359 4 359 0 2 348 352 352 357 352 350 355 350 347 355 3 6 13 36 43 32
186 179 166 224 215 171 183 173 155 79 46 24 14 78 91 92 104 90 60 43 18 14 359 4 4 6 2 353 348 349 350 350 347 341 342 353 5 3 18 43 45 65 65 47